DW9356 Weather Reports


Display with metric or nautical units.
time (UTC)temp
F
wind
direction
speed
MPH
gust
MPH
rain 1hr
in
rain 24hr
in
rain mn
in
humidity
%
barometer
mb
20260831232019 92 180 1.0 4.0 0.00 0.00 0.00 64 1013.4
20260831231230 92 163 1.0 5.0 0.00 0.00 0.00 65 1013.4
20260831230944 92 138 1.0 5.0 0.00 0.00 0.00 64 1013.3
20260831230214 92 162 1.0 5.0 0.00 0.00 0.00 64 1013.3
20260831225908 92 140 1.0 7.0 0.00 0.00 0.00 64 1013.3
20260831225129 92 165 1.0 7.0 0.00 0.00 0.00 64 1013.2
20260831224624 92 159 1.0 4.0 0.00 0.00 0.00 65 1013.3
20260831224103 92 163 1.0 5.0 0.00 0.00 0.00 64 1013.4
20260831223539 92 190 1.0 5.0 0.00 0.00 0.00 64 1013.4
20260831223022 92 172 1.0 5.0 0.00 0.00 0.00 65 1013.4
20260831222523 92 157 1.0 4.0 0.00 0.00 0.00 65 1013.3
20260831221955 92 156 1.0 7.0 0.00 0.00 0.00 65 1013.4
20260831221653 92 169 2.0 6.0 0.00 0.00 0.00 65 1013.3
20260831220913 92 164 2.0 6.0 0.00 0.00 0.00 65 1013.4
20260831220341 91 190 1.0 6.0 0.00 0.00 0.00 66 1013.5
20260831215841 91 143 1.0 6.0 0.00 0.00 0.00 65 1013.5
20260831215341 91 175 2.0 8.0 0.00 0.00 0.00 66 1013.4
20260831215039 92 194 2.0 8.0 0.00 0.00 0.00 65 1013.5
20260831214323 92 175 2.0 5.0 0.00 0.00 0.00 65 1013.6
20260831213812 92 152 2.0 7.0 0.00 0.00 0.00 66 1013.6
20260831213314 92 129 2.0 7.0 0.00 0.00 0.00 66 1013.6
20260831212813 92 65 2.0 7.0 0.00 0.00 0.00 66 1013.7
20260831212307 93 142 2.0 7.0 0.00 0.00 0.00 65 1013.7
20260831211806 93 125 2.0 7.0 0.00 0.00 0.00 65 1013.7
20260831211304 93 141 2.0 8.0 0.00 0.00 0.00 65 1013.7
20260831210803 94 190 3.0 9.0 0.00 0.00 0.00 64 1013.7
20260831210303 95 184 2.0 9.0 0.00 0.00 0.00 63 1013.8
20260831210010 96 126 1.0 7.0 0.00 0.00 0.00 62 1013.8
20260831205226 95 185 2.0 7.0 0.00 0.00 0.00 63 1013.8
20260831204726 97 197 2.0 8.0 0.00 0.00 0.00 60 1013.8
20260831204444 97 163 1.0 8.0 0.00 0.00 0.00 55 1013.8
20260831203724 98 155 1.0 5.0 0.00 0.00 0.00 55 1013.9
20260831203222 98 142 1.0 5.0 0.00 0.00 0.00 55 1014.0
20260831202724 98 147 1.0 5.0 0.00 0.00 0.00 57 1014.1
20260831202208 97 162 1.0 5.0 0.00 0.00 0.00 55 1014.2
20260831201710 98 101 1.0 5.0 0.00 0.00 0.00 53 1014.2
20260831201154 97 144 1.0 5.0 0.00 0.00 0.00 55 1014.3
20260831200654 98 121 2.0 5.0 0.00 0.00 0.00 54 1014.4
20260831200152 96 171 1.0 5.0 0.00 0.00 0.00 57 1014.4
20260831195625 96 181 1.0 4.0 0.00 0.00 0.00 56 1014.4
20260831195105 95 156 1.0 4.0 0.00 0.00 0.00 57 1014.5
20260831194549 96 164 1.0 4.0 0.00 0.00 0.00 58 1014.5
20260831194047 97 98 1.0 3.0 0.00 0.00 0.00 57 1014.7
20260831193547 96 153 1.0 7.0 0.00 0.00 0.00 59 1014.8
20260831193251 96 336 1.0 7.0 0.00 0.00 0.00 57 1014.8
20260831192523 96 17 2.0 7.0 0.00 0.00 0.00 56 1014.8
20260831192239 96 153 2.0 9.0 0.00 0.00 0.00 60 1014.9
20260831191521 97 82 2.0 9.0 0.00 0.00 0.00 57 1015.0
20260831191020 97 92 1.0 8.0 0.00 0.00 0.00 62 1015.0
20260831190519 96 169 2.0 8.0 0.00 0.00 0.00 58 1015.2
20260831190221 96 195 1.0 5.0 0.00 0.00 0.00 58 1015.2
20260831185503 97 144 1.0 5.0 0.00 0.00 0.00 58 1015.3
20260831185004 96 155 1.0 6.0 0.00 0.00 0.00 60 1015.3
20260831184809 94 76 1.0 6.0 0.00 0.00 0.00 63 1015.3
20260831184701 93 168 1.0 4.0 0.00 0.00 0.00 64 1015.5
20260831183709 93 309 1.0 5.0 0.00 0.00 0.00 62 1015.5
20260831182920 94 33 1.0 5.0 0.00 0.00 0.00 60 1015.6
20260831182419 94 19 2.0 5.0 0.00 0.00 0.00 62 1015.6
20260831181859 94 28 1.0 5.0 0.00 0.00 0.00 61 1015.7
20260831181340 95 90 1.0 5.0 0.00 0.00 0.00 62 1015.8
20260831180842 95 161 1.0 5.0 0.00 0.00 0.00 64 1015.7
20260831180340 94 169 1.0 5.0 0.00 0.00 0.00 64 1015.8
20260831180034 93 198 0.0 3.0 0.00 0.00 0.00 66 1016.0
20260831175911 94 163 1.0 5.0 0.00 0.00 0.00 64 1016.0
20260831174825 94 140 1.0 5.0 0.00 0.00 0.00 63 1016.1
20260831174300 94 140 1.0 5.0 0.00 0.00 0.00 66 1016.1
20260831173802 94 194 1.0 6.0 0.00 0.00 0.00 62 1016.2
20260831173301 93 56 1.0 6.0 0.00 0.00 0.00 63 1016.2
20260831172743 94 88 1.0 7.0 0.00 0.00 0.00 64 1016.3
20260831172243 94 163 1.0 7.0 0.00 0.00 0.00 65 1016.4
20260831171744 93 180 2.0 7.0 0.00 0.00 0.00 66 1016.4
20260831171225 93 101 2.0 7.0 0.00 0.00 0.00 65 1016.5
20260831170722 93 197 2.0 6.0 0.00 0.00 0.00 67 1016.5
20260831170448 92 185 1.0 5.0 0.00 0.00 0.00 68 1016.5
20260831165703 92 72 1.0 5.0 0.00 0.00 0.00 68 1016.5
20260831165407 91 190 1.0 5.0 0.00 0.00 0.00 70 1016.6
20260831164619 91 101 1.0 4.0 0.00 0.00 0.00 70 1016.6
20260831164102 91 83 1.0 4.0 0.00 0.00 0.00 71 1016.6
20260831163600 91 306 1.0 3.0 0.00 0.00 0.00 70 1016.6
20260831163103 91 300 1.0 3.0 0.00 0.00 0.00 69 1016.6
20260831162544 91 340 1.0 2.0 0.00 0.00 0.00 69 1016.6
20260831162016 91 148 1.0 5.0 0.00 0.00 0.00 71 1016.7
20260831161502 91 158 1.0 6.0 0.00 0.00 0.00 70 1016.6
20260831160940 91 49 1.0 6.0 0.00 0.00 0.00 70 1016.6
20260831160421 90 9 1.0 6.0 0.00 0.00 0.00 70 1016.7
20260831155855 90 76 1.0 6.0 0.00 0.00 0.00 70 1016.7
20260831155333 90 42 1.0 5.0 0.00 0.00 0.00 70 1016.7
20260831154811 89 145 1.0 5.0 0.00 0.00 0.00 72 1016.8
20260831154250 89 145 1.0 5.0 0.00 0.00 0.00 74 1016.8
20260831153726 88 144 1.0 5.0 0.00 0.00 0.00 74 1016.7
20260831153225 88 202 0.0 5.0 0.00 0.00 0.00 79 1016.7
20260831152702 87 188 0.0 2.0 0.00 0.00 0.00 79 1016.7
20260831152139 87 255 0.0 3.0 0.00 0.00 0.00 80 1016.7
20260831151640 86 255 1.0 3.0 0.00 0.00 0.00 80 1016.6
20260831151135 86 255 1.0 3.0 0.00 0.00 0.00 80 1016.6
20260831150617 86 221 0.0 3.0 0.00 0.00 0.00 80 1016.5
20260831150116 85 288 0.0 3.0 0.00 0.00 0.00 81 1016.5
20260831145837 85 288 1.0 3.0 0.00 0.00 0.00 82 1016.6
20260831145051 85 278 1.0 2.0 0.00 0.00 0.00 83 1016.5
20260831144533 85 157 1.0 2.0 0.00 0.00 0.00 85 1016.5
20260831144032 84 188 0.0 2.0 0.00 0.00 0.00 86 1016.5
20260831143508 84 192 1.0 2.0 0.00 0.00 0.00 88 1016.4
20260831143010 83 196 0.0 2.0 0.00 0.00 0.00 90 1016.4
20260831142710 83 248 0.0 2.0 0.00 0.00 0.00 91 1016.4
20260831141927 82 254 0.0 2.0 0.00 0.00 0.00 92 1016.4
20260831141419 82 253 0.0 1.0 0.00 0.00 0.00 93 1016.3
20260831140851 81 310 0.0 1.0 0.00 0.00 0.00 93 1016.3
20260831140603 81 350 0.0 3.0 0.00 0.00 0.00 94 1016.3
20260831135827 81 350 0.0 3.0 0.00 0.00 0.00 94 1016.3
20260831135327 81 116 0.0 1.0 0.00 0.00 0.00 95 1016.2
20260831134825 80 116 0.0 1.0 0.00 0.00 0.00 95 1016.1
20260831134257 80 117 0.0 1.0 0.00 0.00 0.00 95 1016.1
20260831133754 80 117 0.0 1.0 0.00 0.00 0.00 96 1016.2
20260831133234 80 117 0.0 1.0 0.00 0.00 0.00 96 1016.1
20260831132731 80 117 0.0 1.0 0.00 0.00 0.00 96 1016.0
20260831132713 79 177 0.0 1.0 0.00 0.00 0.00 97 1016.0
20260831131922 79 180 0.0 1.0 0.00 0.00 0.00 97 1015.9
20260831131200 79 174 0.0 1.0 0.00 0.00 0.00 97 1015.8
20260831130905 79 175 0.0 1.0 0.00 0.00 0.00 97 1015.8
20260831130355 78 175 0.0 1.0 0.00 0.00 0.00 97 1015.9
20260831125615 78 175 0.0 1.0 0.00 0.00 0.00 98 1015.8
20260831125100 78 175 0.0 0.0 0.00 0.00 0.00 97 1015.8
20260831124559 77 175 0.0 0.0 0.00 0.00 0.00 97 1015.7
20260831124056 77 175 0.0 0.0 0.00 0.00 0.00 97 1015.7
20260831123816 77 175 0.0 0.0 0.00 0.00 0.00 97 1015.6
20260831123051 76 175 0.0 0.0 0.00 0.00 0.00 97 1015.6
20260831122746 76 175 0.0 0.0 0.00 0.00 0.00 97 1015.6
20260831122029 76 175 0.0 0.0 0.00 0.00 0.00 96 1015.5
20260831121504 76 175 0.0 0.0 0.00 0.00 0.00 96 1015.4
20260831120936 76 175 0.0 0.0 0.00 0.00 0.00 96 1015.2
20260831120415 76 175 0.0 0.0 0.00 0.00 0.00 96 1015.1
20260831120113 76 175 0.0 0.0 0.00 0.00 0.00 96 1015.0
20260831115325 76 175 0.0 0.0 0.00 0.00 0.00 96 1015.1
20260831115026 76 175 0.0 0.0 0.00 0.00 0.00 96 1015.0
20260831114239 76 175 0.0 0.0 0.00 0.00 0.00 96 1014.9
20260831113713 76 175 0.0 0.0 0.00 0.00 0.00 96 1014.9
20260831113211 77 175 0.0 0.0 0.00 0.00 0.00 96 1014.9
20260831112932 77 175 0.0 0.0 0.00 0.00 0.00 96 1015.0
20260831112410 77 175 0.0 0.0 0.00 0.00 0.00 95 1015.0
20260831111643 77 175 0.0 0.0 0.00 0.00 0.00 95 1014.9
20260831111116 77 175 0.0 0.0 0.00 0.00 0.00 95 1014.9
20260831110549 77 175 0.0 0.0 0.00 0.00 0.00 95 1014.9
20260831110049 77 175 0.0 0.0 0.00 0.00 0.00 95 1014.9
20260831105548 77 175 0.0 0.0 0.00 0.00 0.00 95 1014.9
20260831105021 77 175 0.0 0.0 0.00 0.00 0.00 95 1014.8
20260831104931 77 175 0.0 0.0 0.00 0.00 0.00 95 1014.8
20260831103928 77 175 0.0 0.0 0.00 0.00 0.00 95 1014.7
20260831103412 77 175 0.0 0.0 0.00 0.00 0.00 95 1014.8
20260831102910 77 175 0.0 0.0 0.00 0.00 0.00 95 1014.8
20260831102408 77 175 0.0 0.0 0.00 0.00 0.00 95 1014.8
20260831101908 77 175 0.0 0.0 0.00 0.00 0.00 95 1014.9
20260831101631 77 175 0.0 0.0 0.00 0.00 0.00 95 1014.9
20260831100907 77 175 0.0 0.0 0.00 0.00 0.00 95 1015.1
20260831100340 78 175 0.0 0.0 0.00 0.00 0.00 95 1015.1
20260831095818 78 175 0.0 0.0 0.00 0.00 0.00 95 1015.1
20260831095249 78 175 0.0 0.0 0.00 0.00 0.00 94 1015.1
20260831094749 78 175 0.0 0.0 0.00 0.00 0.00 94 1015.0
20260831094226 78 175 0.0 0.0 0.00 0.00 0.00 94 1015.0
20260831093704 78 175 0.0 0.0 0.00 0.00 0.00 94 1014.9
20260831093423 78 175 0.0 0.0 0.00 0.00 0.00 94 1014.9
20260831092633 78 175 0.0 0.0 0.00 0.00 0.00 94 1014.9
20260831092352 78 175 0.0 0.0 0.00 0.00 0.00 94 1014.9
20260831092054 78 175 0.0 0.0 0.00 0.00 0.00 94 1014.8
20260831091108 78 175 0.0 0.0 0.00 0.00 0.00 94 1014.8
20260831090546 78 175 0.0 0.0 0.00 0.00 0.00 94 1014.7
20260831090047 78 175 0.0 0.0 0.00 0.00 0.00 94 1014.8
20260831085753 78 175 0.0 0.0 0.00 0.00 0.00 94 1014.9
20260831085215 78 175 0.0 0.0 0.00 0.00 0.00 93 1014.9
20260831084430 78 175 0.0 0.0 0.00 0.00 0.00 93 1014.9
20260831084145 78 175 0.0 0.0 0.00 0.00 0.00 93 1014.9
20260831083424 78 175 0.0 1.0 0.00 0.00 0.00 93 1014.9
20260831082925 78 175 0.0 1.0 0.00 0.00 0.00 93 1014.9
20260831082401 78 175 0.0 0.0 0.00 0.00 0.00 92 1014.9
20260831081833 78 175 0.0 0.0 0.00 0.00 0.00 92 1015.0
20260831081306 78 175 0.0 0.0 0.00 0.00 0.00 92 1015.0
20260831080742 78 175 0.0 0.0 0.00 0.00 0.00 92 1015.0
20260831080214 79 175 0.0 0.0 0.00 0.00 0.00 92 1015.1
20260831075648 79 175 0.0 0.0 0.00 0.00 0.00 92 1015.0
20260831075120 79 175 0.0 0.0 0.00 0.00 0.00 91 1015.0
20260831074618 79 175 0.0 0.0 0.00 0.00 0.00 91 1015.1
20260831074115 79 175 0.0 0.0 0.00 0.00 0.00 91 1015.0
20260831073549 79 175 0.0 0.0 0.00 0.00 0.00 91 1015.0
20260831073021 79 175 0.0 0.0 0.00 0.00 0.00 91 1015.1
20260831072509 79 175 0.0 0.0 0.00 0.00 0.00 90 1015.1
20260831071943 80 175 0.0 0.0 0.00 0.00 0.00 90 1015.2
20260831071413 80 175 0.0 0.0 0.00 0.00 0.00 90 1015.1
20260831070910 80 175 0.0 0.0 0.00 0.00 0.00 90 1015.2
20260831070354 80 175 0.0 0.0 0.00 0.00 0.00 90 1015.1
20260831065853 80 175 0.0 0.0 0.00 0.00 0.00 89 1015.1
20260831065355 80 175 0.0 0.0 0.00 0.00 0.00 89 1015.1
20260831064850 80 175 0.0 0.0 0.00 0.00 0.00 89 1015.1
20260831064829 80 175 0.0 0.0 0.00 0.00 0.00 89 1015.1
20260831063839 80 175 0.0 0.0 0.00 0.00 0.00 89 1015.2
20260831063336 80 175 0.0 0.0 0.00 0.00 0.00 88 1015.3
20260831062809 80 175 0.0 0.0 0.00 0.00 0.00 88 1015.2
20260831062306 81 175 0.0 0.0 0.00 0.00 0.00 88 1015.2
20260831061739 81 175 0.0 0.0 0.00 0.00 0.00 88 1015.3
20260831061238 81 175 0.0 0.0 0.00 0.00 0.00 88 1015.2
20260831060711 81 175 0.0 0.0 0.00 0.00 0.00 87 1015.3
20260831060344 81 175 0.0 0.0 0.00 0.00 0.00 87 1015.3
20260831060230 81 175 0.0 0.0 0.00 0.00 0.00 87 1015.3
20260831055115 81 175 0.0 0.0 0.00 0.00 0.00 86 1015.3
20260831054612 81 175 0.0 0.0 0.00 0.00 0.00 86 1015.4
20260831054332 81 175 0.0 2.0 0.00 0.00 0.00 86 1015.3
20260831053607 82 175 0.0 2.0 0.00 0.00 0.00 85 1015.2
20260831053309 82 173 0.0 1.0 0.00 0.00 0.00 85 1015.2
20260831052538 82 173 0.0 1.0 0.00 0.00 0.00 85 1015.3
20260831052034 82 173 0.0 0.0 0.00 0.00 0.00 84 1015.2
20260831051509 82 173 0.0 0.0 0.00 0.00 0.00 84 1015.2
20260831050942 82 173 0.0 0.0 0.00 0.00 0.00 84 1015.1
20260831050441 83 173 0.0 1.0 0.00 0.00 0.00 84 1015.0
20260831045940 83 173 0.0 1.0 0.00 0.00 0.00 83 1015.0
20260831045700 83 174 0.0 2.0 0.00 0.00 0.00 83 1015.0
20260831044939 83 174 0.0 2.0 0.00 0.00 0.00 83 1015.0
20260831044432 83 186 0.0 2.0 0.00 0.00 0.00 83 1015.0
20260831043927 83 167 0.0 1.0 0.00 0.00 0.00 82 1015.0
20260831043424 83 167 0.0 1.0 0.00 0.00 0.00 81 1015.0
20260831042920 83 167 0.0 1.0 0.00 0.00 0.00 81 1015.0
20260831042418 83 167 0.0 1.0 0.00 0.00 0.00 81 1014.9
20260831041906 83 167 0.0 4.0 0.00 0.00 0.00 80 1014.8
20260831041636 84 167 1.0 4.0 0.00 0.00 0.00 80 1014.8
20260831040841 84 188 0.0 4.0 0.00 0.00 0.00 79 1014.8
20260831040315 84 188 0.0 4.0 0.00 0.00 0.00 79 1014.8
20260831035811 84 157 0.0 3.0 0.00 0.00 0.00 79 1014.7
20260831035242 84 157 1.0 4.0 0.00 0.00 0.00 78 1014.6
20260831034717 84 194 1.0 5.0 0.00 0.00 0.00 78 1014.5
20260831034152 84 194 1.0 5.0 0.00 0.00 0.00 78 1014.5
20260831033651 84 192 0.0 3.0 0.00 0.00 0.00 77 1014.4
20260831033118 85 145 0.0 1.0 0.00 0.00 0.00 76 1014.4
20260831032552 85 145 0.0 1.0 0.00 0.00 0.00 76 1014.4
20260831032025 85 146 0.0 3.0 0.00 0.00 0.00 76 1014.4
20260831031522 85 145 1.0 3.0 0.00 0.00 0.00 75 1014.3
20260831030955 85 142 1.0 3.0 0.00 0.00 0.00 75 1014.3
20260831030430 85 142 1.0 4.0 0.00 0.00 0.00 74 1014.2
20260831030139 86 209 0.0 4.0 0.00 0.00 0.00 74 1014.1
20260831025419 86 178 0.0 3.0 0.00 0.00 0.00 73 1014.1
20260831025122 86 180 0.0 3.0 0.00 0.00 0.00 72 1014.0
20260831024357 86 173 0.0 4.0 0.00 0.00 0.00 72 1013.9
20260831023858 87 205 1.0 4.0 0.00 0.00 0.00 71 1013.8
20260831023355 87 142 1.0 5.0 0.00 0.00 0.00 71 1013.7
20260831022856 87 190 1.0 5.0 0.00 0.00 0.00 70 1013.7
20260831022352 87 181 1.0 3.0 0.00 0.00 0.00 70 1013.7
20260831021849 87 182 1.0 3.0 0.00 0.00 0.00 69 1013.5
20260831021322 87 190 1.0 4.0 0.00 0.00 0.00 68 1013.5
20260831020818 88 184 1.0 5.0 0.00 0.00 0.00 68 1013.4
20260831020251 88 189 1.0 5.0 0.00 0.00 0.00 68 1013.3
20260831015726 88 164 1.0 5.0 0.00 0.00 0.00 67 1013.3
20260831015159 89 213 1.0 5.0 0.00 0.00 0.00 67 1013.3
20260831014655 89 205 1.0 6.0 0.00 0.00 0.00 66 1013.3
20260831014613 89 138 1.0 6.0 0.00 0.00 0.00 65 1013.2
20260831013603 89 181 2.0 8.0 0.00 0.00 0.00 65 1013.3
20260831013059 89 202 2.0 8.0 0.00 0.00 0.00 65 1013.2
20260831012533 89 160 1.0 8.0 0.00 0.00 0.00 64 1013.2
20260831012029 90 155 1.0 6.0 0.00 0.00 0.00 63 1013.2
20260831011504 90 163 1.0 6.0 0.00 0.00 0.00 63 1013.1
20260831010937 90 183 1.0 6.0 0.00 0.00 0.00 62 1013.0
20260831010433 90 146 1.0 6.0 0.00 0.00 0.00 62 1013.0
20260831005910 91 128 1.0 4.0 0.00 0.00 0.00 62 1013.0
20260831005345 91 169 1.0 4.0 0.00 0.00 0.00 61 1013.0
20260831005101 91 172 1.0 5.0 0.00 0.00 0.00 61 1012.9
20260831004337 91 198 1.0 5.0 0.00 0.00 0.00 60 1012.8
20260831003825 91 176 1.0 4.0 0.00 0.00 0.00 59 1012.9
20260831003328 91 159 1.0 5.0 0.00 0.00 0.00 58 1012.8
20260831002801 92 179 1.0 5.0 0.00 0.00 0.00 57 1012.9
20260831002258 92 187 1.0 5.0 0.00 0.00 0.00 56 1012.7
20260831001730 92 157 1.0 6.0 0.00 0.00 0.00 56 1012.7
20260831001228 92 146 1.0 6.0 0.00 0.00 0.00 57 1012.7
20260831000702 93 182 1.0 9.0 0.00 0.00 0.00 57 1012.7
20260831000134 93 165 1.0 9.0 0.00 0.00 0.00 57 1012.7
20260830235858 93 142 1.0 7.0 0.00 0.00 0.00 57 1012.7
20260830235128 93 160 1.0 7.0 0.00 0.00 0.00 56 1012.7
20260830234627 94 103 1.0 7.0 0.00 0.00 0.00 55 1012.7
20260830234319 94 139 1.0 6.0 0.00 0.00 0.00 54 1012.7
20260830233555 94 164 1.0 8.0 0.00 0.00 0.00 54 1012.7
20260830233028 94 146 1.0 8.0 0.00 0.00 0.00 54 1012.6
20260830232526 95 148 2.0 8.0 0.00 0.00 0.00 54 1012.6